Year,Month,Day,Hour,Minute,Value (Times are PST for temperature in C)
2018,06,20,00,00,17.20
2018,06,20,00,01,17.20
2018,06,20,00,02,17.10
2018,06,20,00,03,17.10
2018,06,20,00,04,17.10
2018,06,20,00,05,17.10
2018,06,20,00,06,17.10
2018,06,20,00,07,17.10
2018,06,20,00,08,17.10
2018,06,20,00,09,17.10
2018,06,20,00,10,17.00
2018,06,20,00,11,17.00
2018,06,20,00,12,17.00
2018,06,20,00,13,17.00
2018,06,20,00,14,16.90
2018,06,20,00,15,16.90
2018,06,20,00,16,16.90
2018,06,20,00,17,16.90
2018,06,20,00,18,16.80
2018,06,20,00,19,16.80
2018,06,20,00,20,16.80
2018,06,20,00,21,16.80
2018,06,20,00,22,16.80
2018,06,20,00,23,16.80
2018,06,20,00,24,16.80
2018,06,20,00,25,16.80
2018,06,20,00,26,16.80
2018,06,20,00,27,16.80
2018,06,20,00,28,16.80
2018,06,20,00,29,16.70
2018,06,20,00,30,16.70
2018,06,20,00,31,16.70
2018,06,20,00,32,16.70
2018,06,20,00,33,16.60
2018,06,20,00,34,16.60
2018,06,20,00,35,16.60
2018,06,20,00,36,16.60
2018,06,20,00,37,16.60
2018,06,20,00,38,16.60
2018,06,20,00,39,16.60
2018,06,20,00,40,16.60
2018,06,20,00,41,16.60
2018,06,20,00,42,16.60
2018,06,20,00,43,16.60
2018,06,20,00,44,16.60
2018,06,20,00,45,16.50
2018,06,20,00,46,16.50
2018,06,20,00,47,16.50
2018,06,20,00,48,16.50
2018,06,20,00,49,16.50
2018,06,20,00,50,16.50
2018,06,20,00,51,16.40
2018,06,20,00,52,16.40
2018,06,20,00,53,16.40
2018,06,20,00,54,16.40
2018,06,20,00,55,16.40
2018,06,20,00,56,16.30
2018,06,20,00,57,16.30
2018,06,20,00,58,16.30
2018,06,20,00,59,16.30
2018,06,20,01,00,16.30
2018,06,20,01,01,16.30
2018,06,20,01,02,16.30
2018,06,20,01,03,16.20
2018,06,20,01,04,16.20
2018,06,20,01,05,16.20
2018,06,20,01,06,16.20
2018,06,20,01,07,16.20
2018,06,20,01,08,16.20
2018,06,20,01,09,16.10
2018,06,20,01,10,16.10
2018,06,20,01,11,16.10
2018,06,20,01,12,16.10
2018,06,20,01,13,16.10
2018,06,20,01,14,16.10
2018,06,20,01,15,16.10
2018,06,20,01,16,16.10
2018,06,20,01,17,16.10
2018,06,20,01,18,16.10
2018,06,20,01,19,16.10
2018,06,20,01,20,16.10
2018,06,20,01,21,16.00
2018,06,20,01,22,16.00
2018,06,20,01,23,16.00
2018,06,20,01,24,16.00
2018,06,20,01,25,15.90
2018,06,20,01,26,15.90
2018,06,20,01,27,15.90
2018,06,20,01,28,15.90
2018,06,20,01,29,15.90
2018,06,20,01,30,15.90
2018,06,20,01,31,15.90
2018,06,20,01,32,15.90
2018,06,20,01,33,15.90
2018,06,20,01,34,15.90
2018,06,20,01,35,15.90
2018,06,20,01,36,15.90
2018,06,20,01,37,15.90
2018,06,20,01,38,15.90
2018,06,20,01,39,15.90
2018,06,20,01,40,15.90
2018,06,20,01,41,15.90
2018,06,20,01,42,15.90
2018,06,20,01,43,15.90
2018,06,20,01,44,15.90
2018,06,20,01,45,15.90
2018,06,20,01,46,15.90
2018,06,20,01,47,15.90
2018,06,20,01,48,15.90
2018,06,20,01,49,15.90
2018,06,20,01,50,15.90
2018,06,20,01,51,15.90
2018,06,20,01,52,15.90
2018,06,20,01,53,15.90
2018,06,20,01,54,15.90
2018,06,20,01,55,15.90
2018,06,20,01,56,15.90
2018,06,20,01,57,15.90
2018,06,20,01,58,15.90
2018,06,20,01,59,15.90
2018,06,20,02,00,15.90
2018,06,20,02,01,15.90
2018,06,20,02,02,16.00
2018,06,20,02,03,16.00
2018,06,20,02,04,16.00
2018,06,20,02,05,16.00
2018,06,20,02,06,16.00
2018,06,20,02,07,16.00
2018,06,20,02,08,15.90
2018,06,20,02,09,15.90
2018,06,20,02,10,16.00
2018,06,20,02,11,16.00
2018,06,20,02,12,16.00
2018,06,20,02,13,15.90
2018,06,20,02,14,15.90
2018,06,20,02,15,16.00
2018,06,20,02,16,16.00
2018,06,20,02,17,16.00
2018,06,20,02,18,16.10
2018,06,20,02,19,16.10
2018,06,20,02,20,16.10
2018,06,20,02,21,16.20
2018,06,20,02,22,16.20
2018,06,20,02,23,16.20
2018,06,20,02,24,16.20
2018,06,20,02,25,16.20
2018,06,20,02,26,16.30
2018,06,20,02,27,16.30
2018,06,20,02,28,16.30
2018,06,20,02,29,16.30
2018,06,20,02,30,16.30
2018,06,20,02,31,16.30
2018,06,20,02,32,16.40
2018,06,20,02,33,16.40
2018,06,20,02,34,16.40
2018,06,20,02,35,16.40
2018,06,20,02,36,16.40
2018,06,20,02,37,16.50
2018,06,20,02,38,16.50
2018,06,20,02,39,16.60
2018,06,20,02,40,16.60
2018,06,20,02,41,16.60
2018,06,20,02,42,16.60
2018,06,20,02,43,16.60
2018,06,20,02,44,16.70
2018,06,20,02,45,16.70
2018,06,20,02,46,16.70
2018,06,20,02,47,16.70
2018,06,20,02,48,16.80
2018,06,20,02,49,16.80
2018,06,20,02,50,16.80
2018,06,20,02,51,16.80
2018,06,20,02,52,16.80
2018,06,20,02,53,16.80
2018,06,20,02,54,16.90
2018,06,20,02,55,16.90
2018,06,20,02,56,16.90
2018,06,20,02,57,16.90
2018,06,20,02,58,16.90
2018,06,20,02,59,16.90
2018,06,20,03,00,16.90
2018,06,20,03,01,16.90
2018,06,20,03,02,17.00
2018,06,20,03,03,17.00
2018,06,20,03,04,17.00
2018,06,20,03,05,17.00
2018,06,20,03,06,17.00
2018,06,20,03,07,17.00
2018,06,20,03,08,17.00
2018,06,20,03,09,17.00
2018,06,20,03,10,17.00
2018,06,20,03,11,17.00
2018,06,20,03,12,17.00
2018,06,20,03,13,17.00
2018,06,20,03,14,17.00
2018,06,20,03,15,17.00
2018,06,20,03,16,17.00
2018,06,20,03,17,17.00
2018,06,20,03,18,17.00
2018,06,20,03,19,17.00
2018,06,20,03,20,17.00
2018,06,20,03,21,17.00
2018,06,20,03,22,17.00
2018,06,20,03,23,17.00
2018,06,20,03,24,17.00
2018,06,20,03,25,17.00
2018,06,20,03,26,17.00
2018,06,20,03,27,17.00
2018,06,20,03,28,17.00
2018,06,20,03,29,17.00
2018,06,20,03,30,17.00
2018,06,20,03,31,17.00
2018,06,20,03,32,17.00
2018,06,20,03,33,17.00
2018,06,20,03,34,17.00
2018,06,20,03,35,17.00
2018,06,20,03,36,17.00
2018,06,20,03,37,16.90
2018,06,20,03,38,16.90
2018,06,20,03,39,16.90
2018,06,20,03,40,16.90
2018,06,20,03,41,16.90
2018,06,20,03,42,16.90
2018,06,20,03,43,16.90
2018,06,20,03,44,16.90
2018,06,20,03,45,16.90
2018,06,20,03,46,16.90
2018,06,20,03,47,16.90
2018,06,20,03,48,16.90
2018,06,20,03,49,16.90
2018,06,20,03,50,16.90
2018,06,20,03,51,16.90
2018,06,20,03,52,16.90
2018,06,20,03,53,16.90
2018,06,20,03,54,16.90
2018,06,20,03,55,16.80
2018,06,20,03,56,16.80
2018,06,20,03,57,16.80
2018,06,20,03,58,16.80
2018,06,20,03,59,16.80
2018,06,20,04,00,16.80
2018,06,20,04,01,16.80
2018,06,20,04,02,16.80
2018,06,20,04,03,16.80
2018,06,20,04,04,16.80
2018,06,20,04,05,16.80
2018,06,20,04,06,16.80
2018,06,20,04,07,16.80
2018,06,20,04,08,16.80
2018,06,20,04,09,16.70
2018,06,20,04,10,16.70
2018,06,20,04,11,16.70
2018,06,20,04,12,16.80
2018,06,20,04,13,16.70
2018,06,20,04,14,16.70
2018,06,20,04,15,16.70
2018,06,20,04,16,16.70
2018,06,20,04,17,16.70
2018,06,20,04,18,16.70
2018,06,20,04,19,16.70
2018,06,20,04,20,16.70
2018,06,20,04,21,16.70
2018,06,20,04,22,16.70
2018,06,20,04,23,16.70
2018,06,20,04,24,16.70
2018,06,20,04,25,16.70
2018,06,20,04,26,16.60
2018,06,20,04,27,16.60
2018,06,20,04,28,16.60
2018,06,20,04,29,16.60
2018,06,20,04,30,16.50
2018,06,20,04,31,16.50
2018,06,20,04,32,16.40
2018,06,20,04,33,16.40
2018,06,20,04,34,16.40
2018,06,20,04,35,16.40
2018,06,20,04,36,16.30
2018,06,20,04,37,16.30
2018,06,20,04,38,16.30
2018,06,20,04,39,16.30
2018,06,20,04,40,16.30
2018,06,20,04,41,16.30
2018,06,20,04,42,16.30
2018,06,20,04,43,16.30
2018,06,20,04,44,16.30
2018,06,20,04,45,16.30
2018,06,20,04,46,16.30
2018,06,20,04,47,16.20
2018,06,20,04,48,16.20
2018,06,20,04,49,16.20
2018,06,20,04,50,16.20
2018,06,20,04,51,16.20
2018,06,20,04,52,16.10
2018,06,20,04,53,16.10
2018,06,20,04,54,16.10
2018,06,20,04,55,16.10
2018,06,20,04,56,16.10
2018,06,20,04,57,16.10
2018,06,20,04,58,16.10
2018,06,20,04,59,16.10
2018,06,20,05,00,16.10
2018,06,20,05,01,16.20
2018,06,20,05,02,16.20
2018,06,20,05,03,16.20
2018,06,20,05,04,16.20
2018,06,20,05,05,16.20
2018,06,20,05,06,16.20
2018,06,20,05,07,16.20
2018,06,20,05,08,16.10
2018,06,20,05,09,16.10
2018,06,20,05,10,16.10
2018,06,20,05,11,16.10
2018,06,20,05,12,16.10
2018,06,20,05,13,16.00
2018,06,20,05,14,16.00
2018,06,20,05,15,15.90
2018,06,20,05,16,15.90
2018,06,20,05,17,15.80
2018,06,20,05,18,15.80
2018,06,20,05,19,15.80
2018,06,20,05,20,15.80
2018,06,20,05,21,15.70
2018,06,20,05,22,15.70
2018,06,20,05,23,15.70
2018,06,20,05,24,15.70
2018,06,20,05,25,15.60
2018,06,20,05,26,15.60
2018,06,20,05,27,15.60
2018,06,20,05,28,15.50
2018,06,20,05,29,15.50
2018,06,20,05,30,15.50
2018,06,20,05,31,15.50
2018,06,20,05,32,15.40
2018,06,20,05,33,15.40
2018,06,20,05,34,15.40
2018,06,20,05,35,15.40
2018,06,20,05,36,15.40
2018,06,20,05,37,15.40
2018,06,20,05,38,15.40
2018,06,20,05,39,15.40
2018,06,20,05,40,15.40
2018,06,20,05,41,15.40
2018,06,20,05,42,15.40
2018,06,20,05,43,15.40
2018,06,20,05,44,15.40
2018,06,20,05,45,15.40
2018,06,20,05,46,15.40
2018,06,20,05,47,15.40
2018,06,20,05,48,15.40
2018,06,20,05,49,15.40
2018,06,20,05,50,15.40
2018,06,20,05,51,15.40
2018,06,20,05,52,15.40
2018,06,20,05,53,15.40
2018,06,20,05,54,15.40
2018,06,20,05,55,15.40
2018,06,20,05,56,15.40
2018,06,20,05,57,15.40
2018,06,20,05,58,15.40
2018,06,20,05,59,15.40
2018,06,20,06,00,15.40
2018,06,20,06,01,15.40
2018,06,20,06,02,15.40
2018,06,20,06,03,15.40
2018,06,20,06,04,15.40
2018,06,20,06,05,15.40
2018,06,20,06,06,15.40
2018,06,20,06,07,15.40
2018,06,20,06,08,15.40
2018,06,20,06,09,15.40
2018,06,20,06,10,15.30
2018,06,20,06,11,15.30
2018,06,20,06,12,15.30
2018,06,20,06,13,15.30
2018,06,20,06,14,15.30
2018,06,20,06,15,15.30
2018,06,20,06,16,15.30
2018,06,20,06,17,15.30
2018,06,20,06,18,15.30
2018,06,20,06,19,15.30
2018,06,20,06,20,15.30
2018,06,20,06,21,15.30
2018,06,20,06,22,15.40
2018,06,20,06,23,15.40
2018,06,20,06,24,15.40
2018,06,20,06,25,15.40
2018,06,20,06,26,15.40
2018,06,20,06,27,15.30
2018,06,20,06,28,15.30
2018,06,20,06,29,15.30
2018,06,20,06,30,15.30
2018,06,20,06,31,15.30
2018,06,20,06,32,15.30
2018,06,20,06,33,15.40
2018,06,20,06,34,15.40
2018,06,20,06,35,15.40
2018,06,20,06,36,15.40
2018,06,20,06,37,15.40
2018,06,20,06,38,15.50
2018,06,20,06,39,15.50
2018,06,20,06,40,15.60
2018,06,20,06,41,15.60
2018,06,20,06,42,15.60
2018,06,20,06,43,15.70
2018,06,20,06,44,15.70
2018,06,20,06,45,15.80
2018,06,20,06,46,15.80
2018,06,20,06,47,15.90
2018,06,20,06,48,15.90
2018,06,20,06,49,16.00
2018,06,20,06,50,16.10
2018,06,20,06,51,16.20
2018,06,20,06,52,16.20
2018,06,20,06,53,16.30
2018,06,20,06,54,16.30
2018,06,20,06,55,16.40
2018,06,20,06,56,16.50
2018,06,20,06,57,16.50
2018,06,20,06,58,16.60
2018,06,20,06,59,16.70
2018,06,20,07,00,16.70
2018,06,20,07,01,16.80
2018,06,20,07,02,16.90
2018,06,20,07,03,17.00
2018,06,20,07,04,17.10
2018,06,20,07,05,17.20
2018,06,20,07,06,17.40
2018,06,20,07,07,17.50
2018,06,20,07,08,17.60
2018,06,20,07,09,17.70
2018,06,20,07,10,17.90
2018,06,20,07,11,18.00
2018,06,20,07,12,18.20
2018,06,20,07,13,18.30
2018,06,20,07,14,18.40
2018,06,20,07,15,18.40
2018,06,20,07,16,18.50
2018,06,20,07,17,18.60
2018,06,20,07,18,18.70
2018,06,20,07,19,18.80
2018,06,20,07,20,18.90
2018,06,20,07,21,18.90
2018,06,20,07,22,18.90
2018,06,20,07,23,18.90
2018,06,20,07,24,19.00
2018,06,20,07,25,19.00
2018,06,20,07,26,18.90
2018,06,20,07,27,18.90
2018,06,20,07,28,18.90
2018,06,20,07,29,18.90
2018,06,20,07,30,18.90
2018,06,20,07,31,18.90
2018,06,20,07,32,19.00
2018,06,20,07,33,19.00
2018,06,20,07,34,19.00
2018,06,20,07,35,19.10
2018,06,20,07,36,19.10
2018,06,20,07,37,19.10
2018,06,20,07,38,19.20
2018,06,20,07,39,19.20
2018,06,20,07,40,19.20
2018,06,20,07,41,19.20
2018,06,20,07,42,19.20
2018,06,20,07,43,19.20
2018,06,20,07,44,19.20
2018,06,20,07,45,19.20
2018,06,20,07,46,19.10
2018,06,20,07,47,19.10
2018,06,20,07,48,19.00
2018,06,20,07,49,18.90
2018,06,20,07,50,18.90
2018,06,20,07,51,18.80
2018,06,20,07,52,18.80
2018,06,20,07,53,18.70
2018,06,20,07,54,18.70
2018,06,20,07,55,18.70
2018,06,20,07,56,18.70
2018,06,20,07,57,18.70
2018,06,20,07,58,18.60
2018,06,20,07,59,18.60
2018,06,20,08,00,18.60
2018,06,20,08,01,18.60
2018,06,20,08,02,18.60
2018,06,20,08,03,18.60
2018,06,20,08,04,18.50
2018,06,20,08,05,18.50
2018,06,20,08,06,18.50
2018,06,20,08,07,18.50
2018,06,20,08,08,18.50
2018,06,20,08,09,18.50
2018,06,20,08,10,18.50
2018,06,20,08,11,18.50
2018,06,20,08,12,18.50
2018,06,20,08,13,18.50
2018,06,20,08,14,18.50
2018,06,20,08,15,18.50
2018,06,20,08,16,18.50
2018,06,20,08,17,18.50
2018,06,20,08,18,18.50
2018,06,20,08,19,18.50
2018,06,20,08,20,18.50
2018,06,20,08,21,18.50
2018,06,20,08,22,18.50
2018,06,20,08,23,18.50
2018,06,20,08,24,18.40
2018,06,20,08,25,18.40
2018,06,20,08,26,18.30
2018,06,20,08,27,18.30
2018,06,20,08,28,18.20
2018,06,20,08,29,18.20
2018,06,20,08,30,18.20
2018,06,20,08,31,18.20
2018,06,20,08,32,18.10
2018,06,20,08,33,18.10
2018,06,20,08,34,18.10
2018,06,20,08,35,18.20
2018,06,20,08,36,18.20
2018,06,20,08,37,18.20
2018,06,20,08,38,18.20
2018,06,20,08,39,18.30
2018,06,20,08,40,18.30
2018,06,20,08,41,18.30
2018,06,20,08,42,18.30
2018,06,20,08,43,18.30
2018,06,20,08,44,18.40
2018,06,20,08,45,18.40
2018,06,20,08,46,18.40
2018,06,20,08,47,18.40
2018,06,20,08,48,18.40
2018,06,20,08,49,18.40
2018,06,20,08,50,18.40
2018,06,20,08,51,18.50
2018,06,20,08,52,18.50
2018,06,20,08,53,18.50
2018,06,20,08,54,18.60
2018,06,20,08,55,18.60
2018,06,20,08,56,18.60
2018,06,20,08,57,18.70
2018,06,20,08,58,18.70
2018,06,20,08,59,18.70
2018,06,20,09,00,18.70
2018,06,20,09,01,18.80
2018,06,20,09,02,18.80
2018,06,20,09,03,18.80
2018,06,20,09,04,18.90
2018,06,20,09,05,18.90
2018,06,20,09,06,19.00
2018,06,20,09,07,19.00
2018,06,20,09,08,19.10
2018,06,20,09,09,19.20
2018,06,20,09,10,19.20
2018,06,20,09,11,19.20
2018,06,20,09,12,19.20
2018,06,20,09,13,19.20
2018,06,20,09,14,19.20
2018,06,20,09,15,19.20
2018,06,20,09,16,19.20
2018,06,20,09,17,19.10
2018,06,20,09,18,19.10
2018,06,20,09,19,19.10
2018,06,20,09,20,19.10
2018,06,20,09,21,19.10
2018,06,20,09,22,19.10
2018,06,20,09,23,19.10
2018,06,20,09,24,19.10
2018,06,20,09,25,19.10
2018,06,20,09,26,19.10
2018,06,20,09,27,19.10
2018,06,20,09,28,19.10
2018,06,20,09,29,19.10
2018,06,20,09,30,19.10
2018,06,20,09,31,19.10
2018,06,20,09,32,19.10
2018,06,20,09,33,19.10
2018,06,20,09,34,19.10
2018,06,20,09,35,19.10
2018,06,20,09,36,19.10
2018,06,20,09,37,19.10
2018,06,20,09,38,19.10
2018,06,20,09,39,19.10
2018,06,20,09,40,19.10
2018,06,20,09,41,19.10
2018,06,20,09,42,19.20
2018,06,20,09,43,19.20
2018,06,20,09,44,19.20
2018,06,20,09,45,19.20
2018,06,20,09,46,19.20
2018,06,20,09,47,19.20
2018,06,20,09,48,19.20
2018,06,20,09,49,19.20
2018,06,20,09,50,19.20
2018,06,20,09,51,19.20
2018,06,20,09,52,19.20
2018,06,20,09,53,19.20
2018,06,20,09,54,19.20
2018,06,20,09,55,19.20
2018,06,20,09,56,19.20
2018,06,20,09,57,19.20
2018,06,20,09,58,19.20
2018,06,20,09,59,19.30
2018,06,20,10,00,19.30
2018,06,20,10,01,19.30
2018,06,20,10,02,19.30
2018,06,20,10,03,19.40
2018,06,20,10,04,19.40
2018,06,20,10,05,19.50
2018,06,20,10,06,19.60
2018,06,20,10,07,19.70
2018,06,20,10,08,19.80
2018,06,20,10,09,19.80
2018,06,20,10,10,19.90
2018,06,20,10,11,19.90
2018,06,20,10,12,20.00
2018,06,20,10,13,20.00
2018,06,20,10,14,20.10
2018,06,20,10,15,20.10
2018,06,20,10,16,20.10
2018,06,20,10,17,20.20
2018,06,20,10,18,20.20
2018,06,20,10,19,20.20
2018,06,20,10,20,20.20
2018,06,20,10,21,20.20
2018,06,20,10,22,20.30
2018,06,20,10,23,20.30
2018,06,20,10,24,20.40
2018,06,20,10,25,20.50
2018,06,20,10,26,20.60
2018,06,20,10,27,20.70
2018,06,20,10,28,20.70
2018,06,20,10,29,20.70
2018,06,20,10,30,20.70
2018,06,20,10,31,20.60
2018,06,20,10,32,20.60
2018,06,20,10,33,20.60
2018,06,20,10,34,20.70
2018,06,20,10,35,20.70
2018,06,20,10,36,20.80
2018,06,20,10,37,20.80
2018,06,20,10,38,20.90
2018,06,20,10,39,20.90
2018,06,20,10,40,20.90
2018,06,20,10,41,20.90
2018,06,20,10,42,20.90
2018,06,20,10,43,20.90
2018,06,20,10,44,20.90
2018,06,20,10,45,21.00
2018,06,20,10,46,21.00
2018,06,20,10,47,21.00
2018,06,20,10,48,21.00
2018,06,20,10,49,20.90
2018,06,20,10,50,20.90
2018,06,20,10,51,20.90
2018,06,20,10,52,20.90
2018,06,20,10,53,20.90
2018,06,20,10,54,20.90
2018,06,20,10,55,20.90
2018,06,20,10,56,20.80
2018,06,20,10,57,20.80
2018,06,20,10,58,20.80
2018,06,20,10,59,20.70
2018,06,20,11,00,20.70
2018,06,20,11,01,20.60
2018,06,20,11,02,20.50
2018,06,20,11,03,20.50
2018,06,20,11,04,20.40
2018,06,20,11,05,20.40
2018,06,20,11,06,20.40
2018,06,20,11,07,20.30
2018,06,20,11,08,20.30
2018,06,20,11,09,20.30
2018,06,20,11,10,20.20
2018,06,20,11,11,20.10
2018,06,20,11,12,20.10
2018,06,20,11,13,20.10
2018,06,20,11,14,20.00
2018,06,20,11,15,20.00
2018,06,20,11,16,20.00
2018,06,20,11,17,20.10
2018,06,20,11,18,20.10
2018,06,20,11,19,20.10
2018,06,20,11,20,20.10
2018,06,20,11,21,20.10
2018,06,20,11,22,20.10
2018,06,20,11,23,20.20
2018,06,20,11,24,20.20
2018,06,20,11,25,20.20
2018,06,20,11,26,20.20
2018,06,20,11,27,20.20
2018,06,20,11,28,20.20
2018,06,20,11,29,20.10
2018,06,20,11,30,20.20
2018,06,20,11,31,20.20
2018,06,20,11,32,20.30
2018,06,20,11,33,20.30
2018,06,20,11,34,20.40
2018,06,20,11,35,20.40
2018,06,20,11,36,20.50
2018,06,20,11,37,20.60
2018,06,20,11,38,20.70
2018,06,20,11,39,20.70
2018,06,20,11,40,20.80
2018,06,20,11,41,20.80
2018,06,20,11,42,20.80
2018,06,20,11,43,20.80
2018,06,20,11,44,20.90
2018,06,20,11,45,21.00
2018,06,20,11,46,21.00
2018,06,20,11,47,21.10
2018,06,20,11,48,21.20
2018,06,20,11,49,21.30
2018,06,20,11,50,21.30
2018,06,20,11,51,21.30
2018,06,20,11,52,21.30
2018,06,20,11,53,21.30
2018,06,20,11,54,21.30
2018,06,20,11,55,21.30
2018,06,20,11,56,21.30
2018,06,20,11,57,21.30
2018,06,20,11,58,21.40
2018,06,20,11,59,21.40
2018,06,20,12,00,21.40
2018,06,20,12,01,21.40
2018,06,20,12,02,21.30
2018,06,20,12,03,21.20
2018,06,20,12,04,21.10
2018,06,20,12,05,21.10
2018,06,20,12,06,21.00
2018,06,20,12,07,21.00
2018,06,20,12,08,20.90
2018,06,20,12,09,20.90
2018,06,20,12,10,20.80
2018,06,20,12,11,20.80
2018,06,20,12,12,20.70
2018,06,20,12,13,20.70
2018,06,20,12,14,20.70
2018,06,20,12,15,20.70
2018,06,20,12,16,20.70
2018,06,20,12,17,20.70
2018,06,20,12,18,20.70
2018,06,20,12,19,20.80
2018,06,20,12,20,20.80
2018,06,20,12,21,20.80
2018,06,20,12,22,20.80
2018,06,20,12,23,20.80
2018,06,20,12,24,20.80
2018,06,20,12,25,20.90
2018,06,20,12,26,20.90
2018,06,20,12,27,20.90
2018,06,20,12,28,20.90
2018,06,20,12,29,20.90
2018,06,20,12,30,20.80
2018,06,20,12,31,20.80
2018,06,20,12,32,20.80
2018,06,20,12,33,20.80
2018,06,20,12,34,20.80
2018,06,20,12,35,20.80
2018,06,20,12,36,20.80
2018,06,20,12,37,20.80
2018,06,20,12,38,20.70
2018,06,20,12,39,20.60
2018,06,20,12,40,20.60
2018,06,20,12,41,20.60
2018,06,20,12,42,20.60
2018,06,20,12,43,20.60
2018,06,20,12,44,20.60
2018,06,20,12,45,20.60
2018,06,20,12,46,20.60
2018,06,20,12,47,20.60
2018,06,20,12,48,20.60
2018,06,20,12,49,20.60
2018,06,20,12,50,20.70
2018,06,20,12,51,20.70
2018,06,20,12,52,20.70
2018,06,20,12,53,20.70
2018,06,20,12,54,20.70
2018,06,20,12,55,20.70
2018,06,20,12,56,20.80
2018,06,20,12,57,20.80
2018,06,20,12,58,20.80
2018,06,20,12,59,20.90
2018,06,20,13,00,20.90
2018,06,20,13,01,21.00
2018,06,20,13,02,21.00
2018,06,20,13,03,21.10
2018,06,20,13,04,21.10
2018,06,20,13,05,21.20
2018,06,20,13,06,21.20
2018,06,20,13,07,21.20
2018,06,20,13,08,21.20
2018,06,20,13,09,21.30
2018,06,20,13,10,21.30
2018,06,20,13,11,21.30
2018,06,20,13,12,21.30
2018,06,20,13,13,21.30
2018,06,20,13,14,21.30
2018,06,20,13,15,21.40
2018,06,20,13,16,21.40
2018,06,20,13,17,21.40
2018,06,20,13,18,21.50
2018,06,20,13,19,21.60
2018,06,20,13,20,21.70
2018,06,20,13,21,21.80
2018,06,20,13,22,21.80
2018,06,20,13,23,22.00
2018,06,20,13,24,22.10
2018,06,20,13,25,22.20
2018,06,20,13,26,22.30
2018,06,20,13,27,22.40
2018,06,20,13,28,22.50
2018,06,20,13,29,22.60
2018,06,20,13,30,22.70
2018,06,20,13,31,22.80
2018,06,20,13,32,22.90
2018,06,20,13,33,23.00
2018,06,20,13,34,23.10
2018,06,20,13,35,23.20
2018,06,20,13,36,23.20
2018,06,20,13,37,23.20
2018,06,20,13,38,23.30
2018,06,20,13,39,23.30
2018,06,20,13,40,23.40
2018,06,20,13,41,23.40
2018,06,20,13,42,23.40
2018,06,20,13,43,23.40
2018,06,20,13,44,23.40
2018,06,20,13,45,23.50
2018,06,20,13,46,23.50
2018,06,20,13,47,23.60
2018,06,20,13,48,23.60
2018,06,20,13,49,23.70
2018,06,20,13,50,23.80
2018,06,20,13,51,23.90
2018,06,20,13,52,23.90
2018,06,20,13,53,24.00
2018,06,20,13,54,24.00
2018,06,20,13,55,24.10
2018,06,20,13,56,24.20
2018,06,20,13,57,24.30
2018,06,20,13,58,24.40
2018,06,20,13,59,24.50
2018,06,20,14,00,24.60
2018,06,20,14,01,24.70
2018,06,20,14,02,24.80
2018,06,20,14,03,24.80
2018,06,20,14,04,24.80
2018,06,20,14,05,24.90
2018,06,20,14,06,25.00
2018,06,20,14,07,25.10
2018,06,20,14,08,25.20
2018,06,20,14,09,25.30
2018,06,20,14,10,25.20
2018,06,20,14,11,25.20
2018,06,20,14,12,25.10
2018,06,20,14,13,24.90
2018,06,20,14,14,24.80
2018,06,20,14,15,24.60
2018,06,20,14,16,24.50
2018,06,20,14,17,24.30
2018,06,20,14,18,24.10
2018,06,20,14,19,23.90
2018,06,20,14,20,23.70
2018,06,20,14,21,23.60
2018,06,20,14,22,23.50
2018,06,20,14,23,23.40
2018,06,20,14,24,23.30
2018,06,20,14,25,23.20
2018,06,20,14,26,23.20
2018,06,20,14,27,23.20
2018,06,20,14,28,23.20
2018,06,20,14,29,23.20
2018,06,20,14,30,23.20
2018,06,20,14,31,23.30
2018,06,20,14,32,23.30
2018,06,20,14,33,23.30
2018,06,20,14,34,23.40
2018,06,20,14,35,23.40
2018,06,20,14,36,23.50
2018,06,20,14,37,23.50
2018,06,20,14,38,23.60
2018,06,20,14,39,23.70
2018,06,20,14,40,23.80
2018,06,20,14,41,23.90
2018,06,20,14,42,24.00
2018,06,20,14,43,24.10
2018,06,20,14,44,24.10
2018,06,20,14,45,24.20
2018,06,20,14,46,24.20
2018,06,20,14,47,24.20
2018,06,20,14,48,24.20
2018,06,20,14,49,24.10
2018,06,20,14,50,24.20
2018,06,20,14,51,24.20
2018,06,20,14,52,24.30
2018,06,20,14,53,24.40
2018,06,20,14,54,24.40
2018,06,20,14,55,24.40
2018,06,20,14,56,24.50
2018,06,20,14,57,24.50
2018,06,20,14,58,24.40
2018,06,20,14,59,24.30
2018,06,20,15,00,24.20
2018,06,20,15,01,24.00
2018,06,20,15,02,23.90
2018,06,20,15,03,23.70
2018,06,20,15,04,23.60
2018,06,20,15,05,23.60
2018,06,20,15,06,23.60
2018,06,20,15,07,23.60
2018,06,20,15,08,23.60
2018,06,20,15,09,23.70
2018,06,20,15,10,23.80
2018,06,20,15,11,23.90
2018,06,20,15,12,23.90
2018,06,20,15,13,24.00
2018,06,20,15,14,24.10
2018,06,20,15,15,24.20
2018,06,20,15,16,24.20
2018,06,20,15,17,24.20
2018,06,20,15,18,24.20
2018,06,20,15,19,24.20
2018,06,20,15,20,24.10
2018,06,20,15,21,24.10
2018,06,20,15,22,24.10
2018,06,20,15,23,24.10
2018,06,20,15,24,24.10
2018,06,20,15,25,24.10
2018,06,20,15,26,24.10
2018,06,20,15,27,24.10
2018,06,20,15,28,24.10
2018,06,20,15,29,24.10
2018,06,20,15,30,24.20
2018,06,20,15,31,24.30
2018,06,20,15,32,24.40
2018,06,20,15,33,24.40
2018,06,20,15,34,24.50
2018,06,20,15,35,24.60
2018,06,20,15,36,24.60
2018,06,20,15,37,24.70
2018,06,20,15,38,24.70
2018,06,20,15,39,24.70
2018,06,20,15,40,24.70
2018,06,20,15,41,24.80
2018,06,20,15,42,24.80
2018,06,20,15,43,24.90
2018,06,20,15,44,25.00
2018,06,20,15,45,25.10
2018,06,20,15,46,25.10
2018,06,20,15,47,25.20
2018,06,20,15,48,25.30
2018,06,20,15,49,25.30
2018,06,20,15,50,25.30
2018,06,20,15,51,25.40
2018,06,20,15,52,25.40
2018,06,20,15,53,25.40
2018,06,20,15,54,25.40
2018,06,20,15,55,25.40
2018,06,20,15,56,25.40
2018,06,20,15,57,25.50
2018,06,20,15,58,25.50
2018,06,20,15,59,25.50
2018,06,20,16,00,25.40
2018,06,20,16,01,25.40
2018,06,20,16,02,25.30
2018,06,20,16,03,25.30
2018,06,20,16,04,25.30
2018,06,20,16,05,25.20
2018,06,20,16,06,25.30
2018,06,20,16,07,25.30
2018,06,20,16,08,25.30
2018,06,20,16,09,25.30
2018,06,20,16,10,25.40
2018,06,20,16,11,25.40
2018,06,20,16,12,25.40
2018,06,20,16,13,25.40
2018,06,20,16,14,25.40
2018,06,20,16,15,25.30
2018,06,20,16,16,25.30
2018,06,20,16,17,25.30
2018,06,20,16,18,25.30
2018,06,20,16,19,25.30
2018,06,20,16,20,25.30
2018,06,20,16,21,25.30
2018,06,20,16,22,25.20
2018,06,20,16,23,25.20
2018,06,20,16,24,25.20
2018,06,20,16,25,25.10
2018,06,20,16,26,25.10
2018,06,20,16,27,25.00
2018,06,20,16,28,25.00
2018,06,20,16,29,24.90
2018,06,20,16,30,25.00
2018,06,20,16,31,25.00
2018,06,20,16,32,25.10
2018,06,20,16,33,25.10
2018,06,20,16,34,25.20
2018,06,20,16,35,25.20
2018,06,20,16,36,25.30
2018,06,20,16,37,25.30
2018,06,20,16,38,25.40
2018,06,20,16,39,25.50
2018,06,20,16,40,25.60
2018,06,20,16,41,25.70
2018,06,20,16,42,25.80
2018,06,20,16,43,25.90
2018,06,20,16,44,25.90
2018,06,20,16,45,26.00
2018,06,20,16,46,26.10
2018,06,20,16,47,26.10
2018,06,20,16,48,26.20
2018,06,20,16,49,26.30
2018,06,20,16,50,26.40
2018,06,20,16,51,26.50
2018,06,20,16,52,26.60
2018,06,20,16,53,26.60
2018,06,20,16,54,26.70
2018,06,20,16,55,26.80
2018,06,20,16,56,26.80
2018,06,20,16,57,26.80
2018,06,20,16,58,26.80
2018,06,20,16,59,26.80
2018,06,20,17,00,26.80
2018,06,20,17,01,26.90
2018,06,20,17,02,26.90
2018,06,20,17,03,26.90
2018,06,20,17,04,26.90
2018,06,20,17,05,26.90
2018,06,20,17,06,26.90
2018,06,20,17,07,26.90
2018,06,20,17,08,26.90
2018,06,20,17,09,26.80
2018,06,20,17,10,26.80
2018,06,20,17,11,26.70
2018,06,20,17,12,26.70
2018,06,20,17,13,26.60
2018,06,20,17,14,26.50
2018,06,20,17,15,26.50
2018,06,20,17,16,26.50
2018,06,20,17,17,26.50
2018,06,20,17,18,26.50
2018,06,20,17,19,26.50